Tracking 20621 objects as of 1-Apr-2020
HD Live streaming from Space Station
objects crossing your sky now

ARIANE 2 DEB

Track ARIANE 2 DEB now!


NORAD ID: 33566
Int'l Code: 1989-006BJ
Perigee: 600.9 km
Apogee: 35,450.0 km
Inclination: 8.6 °
Period: 632.0 minutes
Semi major axis: 24396 km
RCS: 0.1486 m2 (medium)
Launch date: January 27, 1989
Source: France (FR)
Launch site: FRENCH GUIANA (FRGUI)

Note: This is SATELLITE DEBRIS
aabbcc
Your satellite tracking list
Your tracking list is empty




NASA's NSSDC Master Catalog

Two Line Element Set (TLE):
1 33566U 89006BJ  19303.77989549 +.00000424 +00000-0 +71412-2 0  9997
2 33566 008.5689 000.8352 7142258 266.8689 014.4199 02.27831235039691
Source of the keplerian elements: AFSPC